This is the latest recevied weather packets stored in our database for station/object KK7ISX. If no packets are shown the sender has not sent any weather packets the latest 10 day(s).
| Time | Temp. | Humidity | Pressure | Rain* | Wind** | Luminosity | Snow |
|---|---|---|---|---|---|---|---|
| 1777670071 | 23.33° C | 26% | 1019.5 hPa | 0 mm | - | 655 W/m² | - |
| 1777669768 | 23.33° C | 28% | 1019.2 hPa | 0 mm | - | 676 W/m² | - |
| 1777669464 | 22.78° C | 25% | 1019.2 hPa | 0 mm | - | 678 W/m² | - |
| 1777669161 | 22.22° C | 26% | 1019.5 hPa | 0 mm | - | 679 W/m² | - |
| 1777668858 | 23.33° C | 26% | 1019.4 hPa | 0 mm | - | 684 W/m² | - |
| 1777668555 | 23.89° C | 26% | 1019.5 hPa | 0 mm | - | 690 W/m² | - |
| 1777668250 | 22.22° C | 27% | 1019.5 hPa | 0 mm | - | 699 W/m² | - |
| 1777667947 | 22.78° C | 28% | 1019.8 hPa | 0 mm | - | 704 W/m² | - |
| 1777667644 | 22.78° C | 27% | 1019.6 hPa | 0 mm | - | 711 W/m² | - |
| 1777667342 | 22.78° C | 29% | 1019.4 hPa | 0 mm | - | 716 W/m² | - |
| 1777667039 | 22.22° C | 27% | 1019.8 hPa | 0 mm | - | 721 W/m² | - |
| 1777666735 | 22.78° C | 27% | 1019.9 hPa | 0 mm | - | 724 W/m² | - |
| 1777666432 | 21.67° C | 27% | 1019.9 hPa | 0 mm | - | 728 W/m² | - |
| 1777666128 | 22.22° C | 27% | 1019.9 hPa | 0 mm | - | 732 W/m² | - |
| 1777665825 | 22.22° C | 28% | 1020 hPa | 0 mm | - | 731 W/m² | - |
| 1777665524 | 21.67° C | 28% | 1020 hPa | 0 mm | - | 737 W/m² | - |
| 1777665219 | 21.67° C | 29% | 1020 hPa | 0 mm | - | 742 W/m² | - |
| 1777664915 | 22.22° C | 28% | 1020.1 hPa | 0 mm | - | 746 W/m² | - |
| 1777664611 | 22.22° C | 29% | 1019.9 hPa | 0 mm | - | 747 W/m² | - |
| 1777664308 | 22.22° C | 30% | 1020.3 hPa | 0 mm | - | 748 W/m² | - |
| 1777664006 | 21.67° C | 30% | 1020.2 hPa | 0 mm | - | 754 W/m² | - |
| 1777663704 | 21.67° C | 32% | 1020.4 hPa | 0 mm | - | 756 W/m² | - |
| 1777663400 | 21.11° C | 30% | 1020.5 hPa | 0 mm | - | 756 W/m² | - |
| 1777663098 | 21.11° C | 32% | 1020.3 hPa | 0 mm | - | 759 W/m² | - |
| 1777662795 | 21.11° C | 32% | 1020.5 hPa | 0 mm | - | 758 W/m² | - |
* Rain latest hour (hover to see other rain measurements)
** Current wind speed in m/s (hover to see current wind gust speed)